Weather in Khabarovka

Russia / Altai Republic     50°41′08″N   86°17′18″E
temp.,
°C
wind,
m/s
gust,
m/s
humid.,
%
clouds,
%
prec.,
mm/h
press.,
hPa
HPBL,
m
6 march, sat
sat601:00−14sse228357 0.0 103526
04:00−15se128326 0.0 103422
07:00−16ese228159 0.0 103422
10:00−12ese227369 0.0 1031139
13:00−4ese125439 0.0 1025417
16:00−1se12462 0.0 1021604
19:00−7ssw126120 0.0 102223
22:00−11s11630 0.0 102422
7 march, sun
sun701:00−13se127416 0.0 102521
04:00−13ese2275100 0.0 102325
07:00−12ese1274100 0.0 102421
10:00−9e1268100 0.0 1023105
13:00−2e1155100 0.0 1020320
16:000n1155100 0.0 1019334
19:00−5ssw0071100 0.0 102221
22:00−7ssw1171100 0.0 102521
8 march, mon
mon801:00−8se1176100 0.0 102521
04:00−10se1282100 0.0 102421
07:00−12se128158 0.0 102421
10:00−7ese227132 0.0 1022134
13:00−1ese125429 0.0 1018405
16:00+2ese125742 0.0 1015587
19:00−2wsw227171 0.0 101823
22:00−4sw2283100 0.0 102131
9 march, tue
tue901:00−5ssw1281100 0.0 102330
04:00−6ssw1182100 0.0 102526
07:00−9ssw118586 0.0 102728
10:00−4e117538 0.0 1028153
13:00+1ese125819 0.0 1025752
16:00+2wsw13510 0.0 10231209
19:00−3sw11710 0.0 102423
22:00−6s11750 0.0 102523
10 march, wed
wed1001:00−8se128230 0.0 102421
04:00−9ese128533 0.0 102321
07:00−10ese128516 0.0 102321
10:00−6ese22720 0.0 1021161
13:000e125717 0.0 1016383
16:00+3e125681 0.0 1013394
19:00−2sse126591 0.0 101322
22:00−3se2276100 0.0 101423